TITAN 3C TRANSTAGE R/B, 1863

Orbit data source: Space-Track

TITAN 3C TRANSTAGE R/B, 1863 is space debris in HEO originally from a launch on Tue, 21 Dec 1965 UTC launched from the Air Force Eastern Test Range (AFETR). Debris objects in space refer to the collection of defunct objects orbiting the Earth. Examples of debris include non-operational satellites, rocket bodies, and fragments generated from explosions, collisions, or faulty payload assembly.

Loading next visibility...
Identifier
1863, 1965-108A
Orbit
HEO
Country
Flag of USUS
Related business
Manufacturer
Martin Marietta
Mission
Spacecraft
Bus & Motor
TRANSTAGE, Unknown motor
Mass
~2,050 kg wet, 1,950 kg dry
Launch date (UTC)
1965-12-21 (60 years ago)
Launch vehicle
Unknown
Launch site
Air Force Eastern Test Range (AFETR)
Object type
Payload
Rocket body
Debris
Shape & HBR
Unknown
Radar Cross Section
Large (>1 m²)

Expand to show TLE details & history
Last TLE update: 2 days ago

TLE from 2 days ago
0 TITAN 3C TRANSTAGE R/B
1 01863U 65108A   26170.47147568  .00000493  00000-0  31839-3 0  9999
2 01863  26.7168 217.8040 5988240 120.0863 312.0293  4.00312019368454
Epoch: 2026-06-19T11:18Z
TLE epoch observation values (Epoch: 2026-06-19T11:18:55.498Z)
Latitude
-0.00003°
Longitude
140.42167°
Altitude
8,962.757 km
Speed
5.308 km/s
True Right ascension
14h 31m 24s
True Declination
0° 00' 00"
Sunlit
Object was in daylight at epoch
Visualization orbit readout
Latitude
Unknown
Longitude
Unknown
Altitude
Unknown
Speed
Unknown
Apparent Right ascension
Unknown
Apparent Declination
Unknown
Sunlit
N/A
Visualization observer readout
Local Sidereal Time
15:57:19
Azimuth
Unknown
Elevation
Unknown
Doppler factor
Unknown
Orbital elements
Apogee altitude
20,415.363 km
Perigee altitude
344.873 km
Semi-major axis
16,758.255 km
Eccentricity
0.59882
Inclination
26.7168°
RAAN
217.804°
Arg. of periapsis
120.0863°
True anomaly
239.95527°
Mean anomaly
312.0293°
Eccentric anomaly
278.05796°
Mean motion
1.00046 °/min
Orbital period
359.83 mins
BSTAR
0.00031839

Documentation

Showing up to 5 results
|